Content
SEND FEEDBACK

Daily
Averages
Monthly
Summary
United States of America

LA MESA, CALIFORNIA


Home > North America > United States > California
Elevation: 593 feet     Latitude: 32 46N     Longitude: 117 01W

WEATHER
 
SELECT A DAY
Number of Records: 101,941;   Date Range: 1/1/95 - 4/23/14
 
SHARE

PRINT THIS DATA

[ ← Previous Day ]
WEATHER ALMANAC - JANUARY 23, 2013
[ Next Day → ]
[ °C ]   °F
Weather ElementAverageHighLow
Temperature54.9 °F71.6 °F (12:47 pm)46.4 °F (12:55 am)
Dewpoint33 °F39.2 °F (11:55 pm)30.2 °F (12:55 am)
Humidity44.9 %57 % (1:55 am)25 % (12:47 pm)
Barometer30.09 in30.15 in (11:15 pm)30.04 in (3:35 am)
Wind Speed0.2 mph3.5 mph (8:15 pm)
Weather ElementAverage
Visibility12.4 mi
Wind DirectionNNE (14.2 °)

Weather ElementTotal
Precipitation---
Heating Degree Days6 (Base 65)
Growing Degree Days9 (Base 50)
Averaged from 31 records on January 23, 2013
WEATHER CONDITIONS BREAKOUT
WIND DIRECTION BREAKOUT
WEATHER BY HOUR - JANUARY 23, 2013
[ °C ]   °F
Local TimeTemperatureDewpointHumidityBarometerVisibilityWind DirectionWind SpeedGust SpeedPrecipitationEventsConditions
12:55 AM46.4 °F30.2 °F53 %30.07 in10.0 miCalmClear
1:15 AM46.4 °F30.2 °F53 %30.06 in10.0 miCalmClear
1:55 AM46.4 °F32.0 °F57 %30.06 in10.0 miCalmClear
2:15 AM46.4 °F30.2 °F53 %30.06 in10.0 miCalmClear
2:35 AM48.2 °F30.2 °F50 %30.06 in10.0 miCalmClear
2:55 AM46.4 °F32.0 °F57 %30.05 in10.0 miCalmClear
3:15 AM46.4 °F32.0 °F57 %30.05 in10.0 miCalmClear
3:35 AM46.4 °F32.0 °F57 %30.04 in10.0 miCalmClear
3:55 AM46.4 °F32.0 °F57 %30.05 in10.0 miCalmClear
4:15 AM48.2 °F32.0 °F54 %30.04 in10.0 miCalmClear
4:35 AM48.2 °F32.0 °F54 %30.04 in10.0 miCalmClear
4:55 AM46.4 °F32.0 °F57 %30.04 in10.0 miCalmClear
5:15 AM46.4 °F32.0 °F57 %30.04 in10.0 miCalmClear
6:47 AM50.0 °F32.0 °F50 %30.07 in25.0 miCalmMostly Cloudy
7:50 AM51.8 °F35.6 °F54 %30.06 in25.0 miCalmMostly Cloudy
8:47 AM55.4 °F33.8 °F44 %30.08 in25.0 miCalmOvercast
11:47 AM68.0 °F35.6 °F30 %30.07 in25.0 miCalmOvercast
12:47 PM71.6 °F33.8 °F25 %30.06 in25.0 miCalmOvercast
8:15 PM62.6 °F32.0 °F32 %30.12 in10.0 miSW (220°)3.5 mphPartly Cloudy
8:35 PM62.6 °F32.0 °F32 %30.12 in10.0 miCalmPartly Cloudy
8:47 PM62.6 °F30.2 °F30 %30.12 in10.0 miCalmScattered Clouds
8:55 PM62.6 °F32.0 °F32 %30.11 in10.0 miCalmPartly Cloudy
9:15 PM62.6 °F32.0 °F32 %30.12 in10.0 miCalmPartly Cloudy
9:35 PM60.8 °F33.8 °F36 %30.12 in10.0 miCalmPartly Cloudy
9:55 PM60.8 °F33.8 °F36 %30.14 in10.0 miSW (220°)3.5 mphMostly Cloudy
10:15 PM60.8 °F33.8 °F36 %30.14 in10.0 miCalmMostly Cloudy
10:35 PM60.8 °F35.6 °F39 %30.14 in10.0 miCalmScattered Clouds
10:55 PM60.8 °F35.6 °F39 %30.14 in10.0 miCalmMostly Cloudy
11:15 PM60.8 °F35.6 °F39 %30.15 in10.0 miCalmOvercast
11:35 PM60.8 °F37.4 °F42 %30.15 in10.0 miCalmOvercast
11:55 PM59.0 °F39.2 °F48 %30.15 in10.0 miCalmOvercast
Hourly data recorded from KSEE, located 4.85 miles away from La Mesa, California







STORIES FROM OUR PARTNERS